Location: Poughquag
(41.6090°N, 73.6820°W)
Time: 14:58:33
(UTC-04:00)

Vanguard 2 - Pass Details

Date: 05 June 2020
Orbit: 552 x 2938 km, 32.9° (Epoch: 06 July)

Event Time Altitude Azimuth Distance (km) Brightness Sun altitude
Rises 14:58:09 0° 197° (SSW) 6,728 12.6 57.8°
Reaches altitude 10° 15:04:30 10° 183° (S) 5,758 12.3 56.7°
Maximum altitude 15:15:36 21° 144° (SE) 4,688 11.7 54.8°
Drops below altitude 10° 15:25:17 10° 103° (ESE) 5,015 11.5 53.1°
Sets 15:30:08 0° 89° (E) 5,656 11.6 52.2°
